Weather in Noviy Urengoy

Russia / Yamalo-Nenets Autonomous Okrug     66°05′04″N   76°40′51″E
temp.,
°C
wind,
m/s
gust,
m/s
humid.,
%
clouds,
%
prec.,
mm/h
press.,
hPa
HPBL,
m
6 march, sat
sat623:00−12sse229693 0.2 99720
02:00−14se1198100 0.0 99720
05:00−14s1297100 0.1 99820
08:00−15s119898 0.0 99820
11:00−12nnw119399 0.1 998104
14:00−13nne119590 0.0 99820
17:00−14n229692 0.1 99821
20:00−16n339799 0.1 99822
7 march, sun
sun723:00−16nne339797 0.1 99829
02:00−18n349896 0.1 99855
05:00−21n339995 0.1 100020
08:00−23n339997 0.0 100121
11:00−21nnw349797 0.1 1003121
14:00−21nnw229684 0.0 100529
17:00−25n1210076 0.0 100620
20:00−27nne1110075 0.0 100819
8 march, mon
mon823:00−27ene1110083 0.0 100819
02:00−25e239892 0.1 100826
05:00−24e339995 0.1 100870
08:00−23ene3499100 0.1 1007108
11:00−21ene349898 0.3 1006160
14:00−19ne3498100 0.1 1004148
17:00−24nne44100100 0.1 100360
20:00−25n46100100 0.0 100183
9 march, tue
tue923:00−26nnw5898100 0.1 1001159
02:00−27nnw5896100 0.1 1001235
05:00−29nw5896100 0.1 1002241
08:00−30nw589597 0.1 1004267
11:00−31wnw579492 0.1 1005291
14:00−32wnw479225 0.0 1008280
17:00−35w349412 0.0 100931
20:00−37w34950 0.0 100921
10 march, wed
wed1023:00−37w33960 0.0 100919
02:00−38w23980 0.0 100819
05:00−38wnw23980 0.0 100819
08:00−37wsw23970 0.0 100719
11:00−33wsw349511 0.0 1006131
14:00−32sw359422 0.0 1006208
17:00−34ssw459411 0.0 100556
20:00−34ssw479545 0.0 100389